Weather Service Report


044 
ASUS42 KCAE 131910
RWRCAE
REGIONAL WEATHER ROUNDUP
NATIONAL WEATHER SERVICE COLUMBIA SC
200 PM EST SAT FEB 13 2016

NOTE: "FAIR" INDICATES FEW OR NO CLOUDS BELOW 12,000 FEET WITH NO
SIGNIFICANT WEATHER AND/OR OBSTRUCTIONS TO VISIBILITY.

NOT ALL STATIONS ARE QUALITY CONTROLLED BY THE NATIONAL 
WEATHER SERVICE. USE DATA WITH CAUTION...ESPECIALLY 
DEWPOINT OBSERVATIONS.

SCZ001>056-GAZ040-063>065-077-132000-
...UPSTATE SOUTH CAROLINA...
  
CITY           SKY/WX    TMP DP  RH WIND       PRES   REMARKS
ANDERSON       SUNNY     45   5  19 NW7       30.26F                  
LIBERTY        CLEAR     43  10  25 SE5       30.23F                  
SPARTANBURG    SUNNY     37  -8  14 N16G24    30.27F WCI  28          
CLEMSON        SUNNY     46   5  18 MISG      30.26F                  
GREENVILLE     SUNNY     41   5  22 N8        30.27F                  
GREENWOOD      SUNNY     45  15  30 W8        30.28F                  
GREER          SUNNY     40   8  26 VRB6      30.27F                  
ROCK HILL      SUNNY     41   4  21 N9        30.27F                  
LAURENS        CLEAR     41  12  30 W7        30.27F                  


...CENTRAL SOUTH CAROLINA...
  
CITY           SKY/WX    TMP DP  RH WIND       PRES   REMARKS
COLUMBIA APT   SUNNY     47   5  18 NW14G21   30.27F                  
COLUMBIA OWENS SUNNY     46   8  21 N9        30.28F                  
MCENTIRE ANGB  SUNNY     47   6  19 W13       30.26F                  
ORANGEBURG     SUNNY     48  13  24 N9        30.26F                  
SUMTER SHAW    SUNNY     45  13  27 NW10      30.24F                  
NEWBERRY       CLEAR     43   5  21 NW10      30.30F                  
AIKEN          FAIR      45  18  33 NW5       30.29F                  
BARNWELL       FAIR      50  21  32 W10       30.27F                  
MANNING        FAIR      45  12  26 NW6G18    30.26F                  
CAMDEN         FAIR      43  43 100 SW8G14    30.27F                  
LANCASTER      CLEAR     41   1  19 NW5       30.28F                  
WINNSBORO      CLEAR     43  14  31 N6        30.26F                  


...EASTERN AND COASTAL SOUTH CAROLINA...
  
CITY           SKY/WX    TMP DP  RH WIND       PRES   REMARKS
MYRTLE BEACH   SUNNY     45  16  31 N17G23    30.27F                  
N MYRTLE BCH   SUNNY     43  16  33 N15G22    30.25F                  
CONWAY         FAIR      41  16  36 W5        30.26F HAZE             
MARION         FAIR      41  14  33 N8G23     30.27F                  
HARTSVILLE     FAIR      43  12  28 N9        30.27F                  
FLORENCE       SUNNY     42  11  28 NW12      30.27F                  
DARLINGTON     SUNNY     43  12  28 NW7       30.29F                  
CHARLESTON APT MOSUNNY   50  19  29 NW8       30.25F                  
MOUNT PLEASANT FAIR      48  21  34 W13       30.25F                  
WALTERBORO     CLEAR     50  19  29 NW7G16    30.26F                  
BEAUFORT       SUNNY     52  25  35 NW8       30.26F                  


...EASTERN GEORGIA...
  
CITY           SKY/WX    TMP DP  RH WIND       PRES   REMARKS
AUGUSTA BUSH F SUNNY     49  16  26 NW13      30.28F                  
AUGUSTA DANIEL SUNNY     47  15  27 CALM      30.27F                  
THOMSON        SUNNY     49  15  26 NW8       30.32F                  
WASHINGTON     FAIR      48  18  29 NW9       30.28F                  
CLAXTON        FAIR      53  28  37 W8G16     30.28F                  
SYLVANIA       CLEAR     51  27  39 N9        30.27F                  
STATESBORO     SUNNY     54   8  16 N8        30.27F                  
SAVANNAH       MOSUNNY   53  25  33 W9        30.26F                  


...SOUTHERN NORTH CAROLINA...
  
CITY           SKY/WX    TMP DP  RH WIND       PRES   REMARKS
CHARLOTTE      MOSUNNY   39   2  21 W9G20     30.28F WCI  33          
MONROE         SUNNY     38   6  26 W10G17    30.26F WCI  31          
WADESBORO      CLEAR     39   1  20 NW12G21   30.30F WCI  32          
ROCKINGHAM     CLEAR     37   4  25 NW15G22   30.28F WCI  28          
RUTHERFORDTON  SUNNY     37   5  26 E7        30.27F WCI  31          
ASHEVILLE      SUNNY     28   5  37 N17G26    30.24F WCI  16          

$$
  

Return to Home page


Western Regional Climate Center, wrcc@dri.edu